Flag for Belarus Weather past 2 weeks in Barysaw, Belarus

Now
30 °F

Light fog.


Feels Like: 30 °F
Forecast: 30 / 54 °F
Wind: No wind

Location: Minsk

Current Time: Oct 2, 2014 at 2:04:57 AM

Latest Report: Oct 2, 2014 at 1:30 AM


Visibility: 5 mi

Pressure: 30.51 "Hg

Humidity: 93%

Dew point: 28 °F

Location of BarysawLocation

Historic Weather in Barysaw — Graph

°F

Barysaw temperature yesterday

Maximum temperature yesterday: 54 °F (at 2:00 PM)
Minimum temperature yesterday: 32 °F (at 11:00 PM)
Average temperature yesterday: 42 °F

Past Weeks' High & Low Weather Summary

 TemperatureHumidityPressure
High66 °F (Sep 17, 3:00 PM)100% (Sep 17, 1:30 AM)30.51 "Hg (Sep 17, 1:30 AM)
Low27 °F (Sep 25, 7:00 AM)30% (Sep 19, 4:30 PM)29.47 "Hg (Sep 23, 3:30 AM)
Average49 °F80%30.06 "Hg
* Reported Sep 17 1:00 AM — Oct 2 1:00 AM, Barysaw, Weather by CustomWeather, © 2014

Note: Actual official high and low records may vary slightly from our data, if they occured in-between our weather recording intervals... More about our weather records

Advertising

Barysaw weather history for previous 24 hours

 ConditionsComfort  
Time TempWeatherWind HumidityBarometerVisibility
1:00 AM
Oct 2
30 °FLight fog.No wind100%30.51 "Hg4 mi
12:30 AM32 °FLight fog.No wind100%30.51 "Hg4 mi
12:00 AM32 °FIce fog.No wind93%30.51 "Hg3 mi
11:30 PM
Oct 1
32 °FIce fog.No wind93%30.48 "Hg3 mi
11:00 PM32 °FLight fog.No wind100%30.48 "Hg6 mi
10:47 PM34 °FLight fog.No wind93%30.48 "Hg5 mi
10:30 PM34 °FFog.No wind93%30.48 "Hg3 mi
10:00 PM36 °FClear.No wind93%30.48 "Hg6 mi
9:30 PM36 °FClear.No wind93%30.48 "Hg10 mi
9:00 PM39 °FClear.1 mph87%30.45 "Hg10 mi
8:30 PM41 °FClear.3 mph81%30.45 "Hg10 mi
8:00 PM39 °FClear.No wind93%30.45 "Hg10 mi
7:30 PM41 °FSunny.No wind87%30.45 "Hg10 mi
7:00 PM45 °FSunny.3 mph76%30.45 "Hg10 mi
6:30 PM46 °FSunny.6 mph71%30.42 "Hg10 mi
6:00 PM50 °FPassing clouds.6 mph67%30.42 "HgN/A
5:30 PM50 °FSunny.8 mph58%30.42 "Hg10 mi
5:00 PM52 °FSunny.8 mph54%30.42 "Hg10 mi
4:30 PM52 °FPassing clouds.8 mph54%30.42 "HgN/A
4:00 PM52 °FPassing clouds.10 mph54%30.42 "HgN/A
3:30 PM54 °FPassing clouds.8 mph54%30.42 "HgN/A
3:00 PM54 °FScattered clouds.10 mph54%30.42 "HgN/A
2:30 PM52 °FScattered clouds.8 mph58%30.42 "HgN/A
2:00 PM54 °FScattered clouds.10 mph54%30.42 "HgN/A
1:30 PM50 °FScattered clouds.10 mph62%30.42 "HgN/A
1:00 PM52 °FScattered clouds.10 mph58%30.42 "HgN/A
12:30 PM50 °FScattered clouds.10 mph67%30.42 "HgN/A
11:30 AM48 °FScattered clouds.8 mph66%30.39 "HgN/A
11:00 AM46 °FScattered clouds.6 mph76%30.39 "HgN/A
10:30 AM45 °FScattered clouds.6 mph81%30.39 "HgN/A
10:00 AM45 °FScattered clouds.8 mph81%30.39 "HgN/A
9:30 AM43 °FScattered clouds.6 mph87%30.36 "HgN/A
9:00 AM41 °FSunny.8 mph93%30.36 "Hg10 mi
8:30 AM39 °FSunny.8 mph93%30.36 "Hg10 mi
8:00 AM36 °FClear.6 mph93%30.33 "Hg10 mi
7:49 AM34 °FClear.6 mph100%30.33 "HgN/A
7:30 AM34 °FLight fog.6 mph100%30.33 "HgN/A
7:00 AM34 °FClear.6 mph100%30.33 "Hg10 mi
6:30 AM36 °FClear.6 mph93%30.33 "Hg10 mi
6:00 AM36 °FClear.6 mph100%30.30 "Hg10 mi
5:30 AM36 °FLight fog.6 mph100%30.30 "HgN/A
5:00 AM36 °FClear.6 mph93%30.30 "Hg10 mi
4:30 AM37 °FClear.6 mph93%30.30 "Hg10 mi
4:00 AM37 °FLight fog.6 mph93%30.27 "HgN/A
3:30 AM37 °FLight fog.6 mph100%30.27 "HgN/A
3:00 AM37 °FLight fog.3 mph93%30.27 "HgN/A
2:30 AM37 °FLight fog.3 mph93%30.24 "HgN/A
2:00 AM39 °FClear.3 mph93%30.24 "Hg10 mi
Weather by CustomWeather, © 2014

See weather overviewHow to use our weather pages